Weather History for Adana, Turkey

Change the Weather History Date:

Thursday, September 6, 2012

  Actual Average Record
Temperature  
Mean Temperature 84 °F -  
Max Temperature 93 °F 87 °F 98 °F (1997)
Min Temperature 75 °F 65 °F 57 °F (1997)
Cooling Degree Days 19    
Growing Degree Days 34 (Base 50)    
Moisture  
Dew Point 71 °F    
Average Humidity 69    
Maximum Humidity 89    
Minimum Humidity 41    
Precipitation  
Precipitation 0.00 in 0.03 in - ()
Sea Level Pressure  
Sea Level Pressure 29.77 in    
Wind  
Wind Speed 4 mph ()    
Max Wind Speed 13 mph    
Max Gust Speed -    
Visibility 6.2 miles    
Events      
Averages and records for this station are not official NWS values.
T = Trace of Precipitation, MM = Missing Value Source: Averaged Metar Reports

Daily Weather History Graph

Daily Weather History Graph

Search for Another Location

Airport:

Trip Planner

Search our weather history database for the weather conditions in past years. The results will help you decide how hot, cold, wet, or windy it might be!

Date:

Astronomy

Sep. 06, 2012 Rise Set
Actual Time 6:13 AM EEST 6:59 PM EEST
Civil Twilight 5:47 AM EEST 7:25 PM EEST
Nautical Twilight 5:16 AM EEST 7:57 PM EEST
Astronomical Twilight 4:44 AM EEST 8:28 PM EEST
Moon 10:05 PM EEST (9/6) 11:44 AM EEST (9/6)
Length of Visible Light 13h 38m
Length of Day
12h 45m
Waning Gibbous, 70% of the Moon is Illuminated
Sep 6
Waning Gibbous
Sep 8
Last Quarter
Sep 16
New
Sep 22
First Quarter
Sep 30
Full

Hourly Weather History & Observations

Time (EEST) Temp. Heat Index Dew Point Humidity Pressure Visibility Wind Dir Wind Speed Gust Speed Precip Events Conditions
12:20 AM 80.6 °F 85.4 °F 73.4 °F 79% 29.80 in - NE 3.5 mph - N/A   Clear
12:50 AM 78.8 °F - 71.6 °F 78% 29.80 in - NE 2.3 mph - N/A   Clear
1:20 AM 78.8 °F - 71.6 °F 78% 29.80 in - NE 2.3 mph - N/A   Clear
1:50 AM 78.8 °F - 71.6 °F 78% 29.80 in - NE 4.6 mph - N/A   Clear
2:20 AM 78.8 °F - 71.6 °F 78% 29.77 in - NE 2.3 mph - N/A   Clear
2:50 AM 77.0 °F - 71.6 °F 83% 29.77 in - NE 3.5 mph - N/A   Clear
3:20 AM 77.0 °F - 71.6 °F 83% 29.77 in - ENE 3.5 mph - N/A   Clear
3:50 AM 77.0 °F - 71.6 °F 83% 29.77 in - East 2.3 mph - N/A   Clear
4:20 AM 77.0 °F - 73.4 °F 89% 29.77 in - Variable 2.3 mph - N/A   Clear
5:20 AM 75.2 °F - 71.6 °F 89% 29.77 in - Variable 1.2 mph - N/A   Clear
5:50 AM 75.2 °F - 71.6 °F 89% 29.77 in - Calm Calm - N/A   Clear
6:20 AM 75.2 °F - 71.6 °F 89% 29.77 in - Variable 2.3 mph - N/A   Clear
6:50 AM 77.0 °F - 73.4 °F 89% 29.77 in - Variable 2.3 mph - N/A   Clear
7:20 AM 78.8 °F - 73.4 °F 83% 29.80 in - Variable 2.3 mph - N/A   Clear
7:50 AM 82.4 °F 88.2 °F 73.4 °F 74% 29.80 in - ENE 3.5 mph - N/A   Clear
8:20 AM 82.4 °F 88.2 °F 73.4 °F 74% 29.80 in - ENE 3.5 mph - N/A   Clear
8:50 AM 84.2 °F 90.9 °F 73.4 °F 70% 29.80 in - NNE 4.6 mph - N/A   Clear
9:20 AM 84.2 °F 89.6 °F 71.6 °F 66% 29.80 in 6.2 mi SSE 4.6 mph - N/A   Scattered Clouds
9:50 AM 86.0 °F 91.8 °F 71.6 °F 62% 29.80 in 6.2 mi SE 6.9 mph - N/A   Scattered Clouds
10:20 AM 86.0 °F 91.8 °F 71.6 °F 62% 29.80 in 6.2 mi SSE 5.8 mph - N/A   Scattered Clouds
10:50 AM 87.8 °F 92.6 °F 69.8 °F 55% 29.77 in 6.2 mi SSE 6.9 mph - N/A   Scattered Clouds
11:50 AM 91.4 °F 95.4 °F 68.0 °F 46% 29.77 in - South 5.8 mph - N/A   Clear
12:20 PM 91.4 °F 94.0 °F 66.2 °F 43% 29.77 in - South 8.1 mph - N/A   Clear
12:50 PM 93.2 °F 97.7 °F 68.0 °F 44% 29.74 in - SSW 6.9 mph - N/A   Clear
1:20 PM 93.2 °F 98.8 °F 69.8 °F 46% 29.74 in - South 9.2 mph - N/A   Clear
1:50 PM 93.2 °F 97.7 °F 68.0 °F 44% 29.74 in - South 8.1 mph - N/A   Clear
2:20 PM 93.2 °F 97.7 °F 68.0 °F 44% 29.74 in - South 11.5 mph - N/A   Clear
2:50 PM 93.2 °F 97.7 °F 68.0 °F 44% 29.74 in - SSW 11.5 mph - N/A   Clear
3:20 PM 93.2 °F 96.2 °F 66.2 °F 41% 29.74 in - South 10.4 mph - N/A   Clear
3:50 PM 91.4 °F 96.8 °F 69.8 °F 49% 29.71 in - SSW 12.7 mph - N/A   Clear
4:20 PM 89.6 °F 94.7 °F 69.8 °F 52% 29.74 in - South 11.5 mph - N/A   Clear
4:50 PM 89.6 °F 96.2 °F 71.6 °F 55% 29.74 in - SSW 11.5 mph - N/A   Clear
5:20 PM 87.8 °F 93.8 °F 71.6 °F 58% 29.74 in - SSW 11.5 mph - N/A   Clear
5:50 PM 86.0 °F 91.8 °F 71.6 °F 62% 29.74 in - SSW 11.5 mph - N/A   Clear
6:20 PM 86.0 °F 91.8 °F 71.6 °F 62% 29.74 in - South 10.4 mph - N/A   Clear
6:50 PM 84.2 °F 90.9 °F 73.4 °F 70% 29.74 in - SSW 9.2 mph - N/A   Clear
7:20 PM 82.4 °F 88.2 °F 73.4 °F 74% 29.74 in - South 5.8 mph - N/A   Clear
7:50 PM 82.4 °F 88.2 °F 73.4 °F 74% 29.74 in - SSE 3.5 mph - N/A   Clear
8:20 PM 82.4 °F 87.2 °F 71.6 °F 70% 29.77 in - SE 4.6 mph - N/A   Clear
8:50 PM 80.6 °F 84.6 °F 71.6 °F 74% 29.77 in - SE 3.5 mph - N/A   Clear
9:20 PM 80.6 °F 84.6 °F 71.6 °F 74% 29.77 in - SE 3.5 mph - N/A   Clear
9:50 PM 80.6 °F 85.4 °F 73.4 °F 79% 29.77 in - ESE 2.3 mph - N/A   Clear
10:20 PM 80.6 °F 85.4 °F 73.4 °F 79% 29.77 in - SSE 2.3 mph - N/A   Clear
10:50 PM 80.6 °F 85.4 °F 73.4 °F 79% 29.77 in - Variable 2.3 mph - N/A   Clear
11:20 PM 78.8 °F - 73.4 °F 83% 29.77 in - SE 2.3 mph - N/A   Clear
11:50 PM 78.8 °F - 73.4 °F 83% 29.77 in - Calm Calm - N/A   Clear